CW1509 Weather Reports


Display with metric or nautical units.
time (UTC)temp
F
wind
direction
speed
MPH
gust
MPH
rain 1hr
in
rain 24hr
in
rain mn
in
humidity
%
barometer
mb
20260509200943 70 163 4.0 9.0 0.00 0.00 0.00 44 1004.1
20260509200422 70 270 3.0 8.0 0.00 0.00 0.00 43 1004.2
20260509195923 69 261 3.0 7.0 0.00 0.00 0.00 43 1004.3
20260509195423 69 291 2.0 4.0 0.00 0.00 0.00 44 1004.2
20260509194924 68 222 2.0 5.0 0.00 0.00 0.00 48 1004.4
20260509194445 67 232 2.0 5.0 0.00 0.00 0.00 44 1004.5
20260509193925 67 232 1.0 4.0 0.00 0.00 0.00 43 1004.6
20260509193424 67 248 2.0 4.0 0.00 0.00 0.00 45 1004.7
20260509192923 67 236 1.0 5.0 0.00 0.00 0.00 46 1004.7
20260509192421 67 244 3.0 5.0 0.00 0.00 0.00 44 1004.7
20260509191922 67 313 1.0 4.0 0.00 0.00 0.00 44 1004.9
20260509191444 67 258 3.0 4.0 0.00 0.00 0.00 42 1004.8
20260509190922 68 242 1.0 4.0 0.00 0.00 0.00 43 1004.9
20260509190442 68 240 1.0 4.0 0.00 0.00 0.00 43 1004.8
20260509185921 68 255 1.0 3.0 0.00 0.00 0.00 43 1004.8
20260509185441 68 274 1.0 9.0 0.00 0.00 0.00 41 1004.9
20260509184918 69 308 2.0 9.0 0.00 0.00 0.00 42 1004.9
20260509184418 69 253 2.0 7.0 0.00 0.00 0.00 42 1004.8
20260509183917 69 254 2.0 6.0 0.00 0.00 0.00 41 1004.9
20260509183417 69 263 1.0 5.0 0.00 0.00 0.00 41 1004.7
20260509182935 70 344 2.0 7.0 0.00 0.00 0.00 41 1004.5
20260509182413 70 274 3.0 7.0 0.00 0.00 0.00 44 1004.5
20260509181914 70 263 3.0 6.0 0.00 0.00 0.00 47 1004.4
20260509181415 70 277 2.0 4.0 0.00 0.00 0.00 47 1004.3
20260509180916 70 300 2.0 5.0 0.00 0.00 0.00 47 1004.3
20260509180416 70 266 1.0 13.0 0.00 0.00 0.00 48 1004.2
20260509175915 70 171 4.0 13.0 0.00 0.00 0.00 49 1004.2
20260509175435 70 266 2.0 4.0 0.00 0.00 0.00 46 1004.2
20260509174955 70 253 1.0 5.0 0.00 0.00 0.00 47 1004.1
20260509174436 70 113 2.0 9.0 0.00 0.00 0.00 51 1004.0
20260509173914 70 256 5.0 9.0 0.00 0.00 0.00 49 1004.1
20260509173414 69 232 3.0 7.0 0.00 0.00 0.00 50 1003.9
20260509172916 69 227 3.0 13.0 0.00 0.00 0.00 54 1004.0
20260509172420 69 175 6.0 13.0 0.00 0.00 0.00 53 1004.1
20260509171935 69 101 4.0 10.0 0.00 0.00 0.00 56 1004.0
20260509171413 68 188 5.0 12.0 0.00 0.00 0.00 54 1004.0
20260509170914 68 251 5.0 11.0 0.00 0.00 0.00 56 1004.0
20260509170412 68 256 5.0 9.0 0.00 0.00 0.00 57 1004.0
20260509165913 68 200 4.0 7.0 0.00 0.00 0.00 57 1004.0
20260509165431 68 267 2.0 8.0 0.00 0.00 0.00 58 1004.0
20260509164912 67 238 2.0 10.0 0.00 0.00 0.00 60 1004.2
20260509164413 67 259 5.0 9.0 0.00 0.00 0.00 58 1004.3
20260509163914 67 277 5.0 9.0 0.00 0.00 0.00 59 1004.4
20260509163415 67 280 2.0 9.0 0.00 0.00 0.00 59 1004.5
20260509162937 67 234 4.0 11.0 0.00 0.00 0.00 58 1004.4
20260509162415 67 278 4.0 10.0 0.00 0.00 0.00 59 1004.5
20260509161914 67 265 3.0 9.0 0.00 0.00 0.00 60 1004.4
20260509161416 67 292 2.0 10.0 0.00 0.00 0.00 60 1004.4
20260509160912 67 185 4.0 10.0 0.00 0.00 0.00 59 1004.4
20260509160429 66 249 4.0 8.0 0.00 0.00 0.00 61 1004.4
20260509155949 66 244 3.0 9.0 0.00 0.00 0.00 61 1004.5
20260509155428 65 224 3.0 11.0 0.00 0.00 0.00 62 1004.2
20260509154919 65 151 4.0 13.0 0.00 0.00 0.00 63 1004.1
20260509154419 64 244 6.0 13.0 0.00 0.00 0.00 62 1004.1
20260509153937 64 207 5.0 12.0 0.00 0.00 0.00 64 1004.2
20260509153437 64 222 7.0 12.0 0.00 0.00 0.00 67 1004.3
20260509152916 63 236 4.0 10.0 0.00 0.00 0.00 68 1004.2
20260509152415 63 243 4.0 14.0 0.00 0.00 0.00 69 1004.2
20260509151935 62 157 4.0 13.0 0.00 0.00 0.00 70 1004.2
20260509151414 62 267 4.0 9.0 0.00 0.00 0.00 71 1004.2
20260509150952 61 235 4.0 8.0 0.00 0.00 0.00 72 1004.2
20260509150430 61 229 4.0 9.0 0.00 0.00 0.00 73 1004.2
20260509145925 60 236 5.0 10.0 0.00 0.00 0.00 73 1004.1
20260509145426 60 210 4.0 10.0 0.00 0.00 0.00 73 1004.2
20260509144947 60 228 4.0 10.0 0.00 0.00 0.00 74 1004.5
20260509144417 60 261 5.0 9.0 0.00 0.00 0.00 74 1004.5
20260509143915 60 199 4.0 8.0 0.00 0.00 0.00 76 1004.5
20260509143416 60 203 4.0 10.0 0.00 0.00 0.00 77 1004.7
20260509142917 59 217 3.0 10.0 0.00 0.00 0.00 76 1004.6
20260509142416 59 193 3.0 11.0 0.00 0.00 0.00 77 1004.6
20260509141916 59 204 5.0 11.0 0.00 0.00 0.00 77 1004.5
20260509141418 59 183 5.0 11.0 0.00 0.00 0.00 78 1004.5
20260509140920 58 254 4.0 14.0 0.00 0.00 0.00 78 1004.6
20260509140421 58 210 5.0 14.0 0.00 0.00 0.00 78 1004.6
20260509135417 58 265 4.0 9.0 0.00 0.00 0.00 81 1004.7
20260509134937 57 232 2.0 7.0 0.00 0.00 0.00 82 1004.7
20260509134434 57 277 3.0 8.0 0.00 0.00 0.00 83 1004.7
20260509133914 57 167 2.0 9.0 0.00 0.00 0.00 84 1004.3
20260509133415 56 257 3.0 9.0 0.00 0.00 0.00 85 1004.2
20260509132915 56 275 3.0 7.0 0.00 0.00 0.00 86 1004.2
20260509132434 55 209 2.0 7.0 0.00 0.00 0.00 87 1004.2
20260509131930 55 206 4.0 7.0 0.00 0.00 0.00 87 1004.3
20260509131450 55 360 3.0 8.0 0.00 0.00 0.00 89 1004.2
20260509130930 55 360 3.0 8.0 0.00 0.00 0.00 89 1004.3
20260509130429 54 360 2.0 9.0 0.00 0.00 0.00 90 1004.4
20260509125929 54 226 3.0 9.0 0.00 0.00 0.00 91 1004.4
20260509125429 53 360 4.0 11.0 0.00 0.00 0.00 91 1004.4
20260509124931 53 360 2.0 11.0 0.00 0.00 0.00 91 1004.4
20260509124431 53 360 3.0 5.0 0.00 0.00 0.00 91 1004.4
20260509123951 53 360 3.0 6.0 0.00 0.00 0.00 91 1004.5
20260509123432 53 171 3.0 6.0 0.00 0.00 0.00 91 1004.5
20260509122913 53 234 3.0 7.0 0.00 0.00 0.00 91 1004.6
20260509122414 53 201 1.0 7.0 0.00 0.00 0.00 91 1004.6
20260509121916 52 208 2.0 7.0 0.00 0.00 0.00 91 1004.6
20260509121417 52 175 3.0 7.0 0.00 0.00 0.00 92 1004.7
20260509120917 52 212 3.0 9.0 0.00 0.00 0.00 92 1004.7
20260509120417 52 190 4.0 9.0 0.00 0.00 0.00 92 1004.7
20260509115917 52 215 2.0 8.0 0.00 0.00 0.00 92 1004.6
20260509115417 52 360 2.0 8.0 0.00 0.00 0.00 92 1004.6
20260509114918 52 360 3.0 6.0 0.00 0.00 0.00 92 1004.6
20260509114418 52 360 3.0 4.0 0.00 0.00 0.00 92 1004.7
20260509113919 52 175 1.0 5.0 0.00 0.00 0.00 92 1004.7
20260509113447 52 256 1.0 6.0 0.00 0.00 0.00 92 1004.8
20260509112925 52 167 2.0 9.0 0.00 0.00 0.00 92 1004.8
20260509112426 52 182 3.0 9.0 0.00 0.00 0.00 92 1004.7
20260509111926 52 360 3.0 5.0 0.00 0.00 0.00 92 1004.8
20260509111427 51 360 2.0 6.0 0.00 0.00 0.00 92 1004.8
20260509110929 52 360 2.0 6.0 0.00 0.00 0.00 92 1004.7
20260509110428 51 360 2.0 5.0 0.00 0.00 0.00 92 1004.7
20260509105930 52 360 3.0 5.0 0.00 0.00 0.00 92 1004.7
20260509105429 51 360 2.0 5.0 0.00 0.00 0.00 92 1004.8
20260509104929 51 219 1.0 4.0 0.00 0.00 0.00 92 1004.9
20260509104429 51 360 2.0 4.0 0.00 0.00 0.00 92 1005.1
20260509103932 51 360 1.0 6.0 0.00 0.00 0.00 92 1005.1
20260509103451 51 176 2.0 7.0 0.00 0.00 0.00 92 1005.2
20260509102932 51 360 2.0 7.0 0.00 0.00 0.00 92 1005.1
20260509102412 52 217 2.0 4.0 0.00 0.00 0.00 92 1005.0
20260509101913 52 360 1.0 3.0 0.00 0.00 0.00 92 1004.9
20260509101414 52 194 1.0 3.0 0.00 0.00 0.00 92 1005.1
20260509100916 52 360 0.0 3.0 0.00 0.00 0.00 92 1005.1
20260509100416 52 360 1.0 5.0 0.00 0.00 0.00 92 1005.1
20260509095918 51 259 2.0 5.0 0.00 0.00 0.00 92 1005.0
20260509095419 51 180 1.0 3.0 0.00 0.00 0.00 92 1004.8
20260509094919 51 360 0.0 5.0 0.00 0.00 0.00 92 1004.8
20260509094440 51 360 2.0 5.0 0.00 0.00 0.00 92 1004.8
20260509093921 51 360 1.0 3.0 0.00 0.00 0.00 92 1004.9
20260509093422 51 232 0.0 3.0 0.00 0.00 0.00 91 1005.0
20260509092921 51 159 2.0 4.0 0.00 0.00 0.00 91 1005.0
20260509092423 51 196 0.0 4.0 0.00 0.00 0.00 91 1004.9
20260509091922 51 233 1.0 4.0 0.00 0.00 0.00 91 1004.9
20260509091423 51 220 0.0 4.0 0.00 0.00 0.00 91 1004.9
20260509090923 51 156 1.0 3.0 0.00 0.00 0.00 91 1005.0
20260509090443 51 160 0.0 4.0 0.00 0.00 0.00 90 1005.0
20260509085923 51 195 1.0 4.0 0.00 0.00 0.00 90 1005.0
20260509085423 51 186 1.0 4.0 0.00 0.00 0.00 90 1005.1
20260509084925 51 200 1.0 3.0 0.00 0.00 0.00 90 1005.0
20260509084446 51 202 0.0 3.0 0.00 0.00 0.00 90 1005.0
20260509083947 51 205 0.0 1.0 0.00 0.00 0.00 89 1005.1
20260509083425 51 232 0.0 4.0 0.00 0.00 0.00 89 1005.0
20260509082926 51 171 1.0 4.0 0.00 0.00 0.00 89 1005.0
20260509082428 51 207 1.0 4.0 0.00 0.00 0.00 89 1005.0
20260509081928 52 178 0.0 3.0 0.00 0.00 0.00 89 1005.1
20260509081429 52 182 0.0 3.0 0.00 0.00 0.00 89 1005.2
20260509080928 52 360 0.0 3.0 0.00 0.00 0.00 88 1005.2
20260509080429 52 360 0.0 3.0 0.00 0.00 0.00 88 1005.2
20260509075949 52 360 0.0 3.0 0.00 0.00 0.00 88 1005.3
20260509075429 52 360 0.0 3.0 0.00 0.00 0.00 88 1005.3
20260509074928 52 360 0.0 2.0 0.00 0.00 0.00 88 1005.2
20260509074429 52 360 1.0 2.0 0.00 0.00 0.00 87 1005.3
20260509073928 52 360 0.0 2.0 0.00 0.00 0.00 87 1005.4
20260509073429 52 360 0.0 2.0 0.00 0.00 0.00 87 1005.3
20260509072948 52 360 0.0 0.0 0.00 0.00 0.00 87 1005.3
20260509072428 52 360 0.0 0.0 0.00 0.00 0.00 87 1005.4
20260509071929 52 360 0.0 3.0 0.00 0.00 0.00 87 1005.5
20260509071431 53 360 0.0 3.0 0.00 0.00 0.00 87 1005.6
20260509070929 53 360 1.0 3.0 0.00 0.00 0.00 87 1005.6
20260509070449 53 360 0.0 3.0 0.00 0.00 0.00 86 1005.7
20260509065928 53 360 1.0 3.0 0.00 0.00 0.00 86 1005.5
20260509065428 53 360 0.0 0.0 0.00 0.00 0.00 86 1005.7
20260509064929 53 360 0.0 2.0 0.00 0.00 0.00 85 1005.7
20260509064431 53 360 1.0 2.0 0.00 0.00 0.00 85 1005.7
20260509063932 53 360 0.0 3.0 0.00 0.00 0.00 85 1005.7
20260509063453 53 360 0.0 1.0 0.00 0.00 0.00 85 1005.8
20260509062952 53 360 0.0 2.0 0.00 0.00 0.00 84 1005.8
20260509062432 53 360 0.0 3.0 0.00 0.00 0.00 84 1005.8
20260509061932 53 360 1.0 3.0 0.00 0.00 0.00 84 1005.8
20260509061431 53 360 0.0 1.0 0.00 0.00 0.00 83 1005.8
20260509060951 53 360 0.0 1.0 0.00 0.00 0.00 83 1005.9
20260509060431 53 360 0.0 3.0 0.00 0.01 0.00 83 1006.0
20260509055946 54 360 2.0 3.0 0.00 0.01 0.00 83 1006.1
20260509055426 54 360 0.0 0.0 0.00 0.01 0.00 82 1006.2
20260509054927 54 360 0.0 0.0 0.00 0.01 0.00 82 1006.2
20260509054428 54 360 0.0 0.0 0.00 0.01 0.00 82 1006.2
20260509053926 54 360 0.0 2.0 0.00 0.01 0.00 82 1006.3
20260509053427 54 360 0.0 2.0 0.00 0.01 0.00 81 1006.2
20260509052926 54 360 0.0 1.0 0.00 0.01 0.00 81 1006.2
20260509052425 54 360 0.0 2.0 0.00 0.01 0.00 81 1006.2
20260509051927 54 360 0.0 2.0 0.00 0.01 0.00 80 1006.4
20260509051413 54 360 0.0 3.0 0.00 0.01 0.00 80 1006.2
20260509050914 54 360 0.0 3.0 0.00 0.01 0.00 79 1006.3
20260509050414 55 360 0.0 1.0 0.00 0.01 0.00 79 1006.3
20260509045916 55 360 0.0 3.0 0.00 0.01 0.00 79 1006.4
20260509045416 55 360 1.0 3.0 0.00 0.01 0.00 79 1006.3
20260509044915 55 360 0.0 3.0 0.00 0.01 0.00 78 1006.4
20260509044418 55 360 1.0 3.0 0.00 0.01 0.00 78 1006.5
20260509043917 55 360 0.0 1.0 0.00 0.01 0.00 78 1006.5
20260509043418 55 360 0.0 1.0 0.00 0.01 0.00 78 1006.5
20260509042936 55 360 0.0 2.0 0.00 0.01 0.00 77 1006.6
20260509042415 55 360 0.0 2.0 0.00 0.01 0.00 77 1006.6
20260509041916 55 360 0.0 0.0 0.00 0.01 0.00 77 1006.6
20260509041416 56 360 0.0 0.0 0.00 0.01 0.00 77 1006.7
20260509040917 56 360 0.0 3.0 0.00 0.01 0.00 77 1006.6
20260509040434 56 360 0.0 3.0 0.00 0.01 0.01 77 1006.6
20260509035914 56 360 0.0 0.0 0.00 0.01 0.01 77 1006.6
20260509035434 56 360 0.0 0.0 0.00 0.01 0.01 77 1006.7
20260509034934 56 360 0.0 0.0 0.00 0.01 0.01 77 1006.7
20260509034413 56 360 0.0 0.0 0.00 0.01 0.01 77 1006.8
20260509033914 56 360 0.0 3.0 0.00 0.01 0.01 77 1006.8
20260509033414 56 360 0.0 3.0 0.00 0.01 0.01 77 1006.8
20260509032913 56 360 0.0 2.0 0.00 0.01 0.01 77 1007.0
20260509032413 56 360 0.0 2.0 0.00 0.01 0.01 77 1007.1
20260509031913 56 360 0.0 1.0 0.00 0.01 0.01 78 1007.1
20260509031415 56 360 0.0 2.0 0.00 0.01 0.01 78 1007.1
20260509030936 56 360 1.0 4.0 0.00 0.01 0.01 78 1007.0
20260509030435 56 360 2.0 3.0 0.00 0.01 0.01 78 1007.0
20260509025955 56 360 0.0 3.0 0.00 0.01 0.01 78 1007.0
20260509025435 56 360 1.0 3.0 0.00 0.01 0.01 77 1007.0
20260509024915 56 360 0.0 0.0 0.00 0.01 0.01 77 1007.1
20260509024415 57 360 0.0 0.0 0.00 0.01 0.01 77 1007.2
20260509023914 57 360 0.0 0.0 0.00 0.01 0.01 76 1007.2
20260509023414 57 360 0.0 0.0 0.00 0.01 0.01 76 1007.1
20260509022914 57 360 0.0 0.0 0.00 0.01 0.01 75 1007.1
20260509022414 57 360 0.0 0.0 0.00 0.01 0.01 74 1007.2
20260509021915 57 360 0.0 0.0 0.00 0.01 0.01 74 1007.1
20260509021416 58 360 0.0 0.0 0.00 0.01 0.01 73 1007.2
20260509020917 58 360 0.0 0.0 0.00 0.01 0.01 72 1007.2
20260509020416 58 360 0.0 0.0 0.00 0.01 0.01 73 1007.2
20260509015916 58 360 0.0 0.0 0.00 0.01 0.01 73 1007.1
20260509015417 58 360 0.0 0.0 0.00 0.01 0.01 72 1007.2
20260509014937 59 360 0.0 0.0 0.00 0.01 0.01 71 1007.3
20260509014418 59 360 0.0 0.0 0.00 0.01 0.01 71 1007.1
20260509013918 59 360 0.0 0.0 0.00 0.01 0.01 70 1007.3
20260509013419 59 360 0.0 0.0 0.00 0.01 0.01 69 1007.2
20260509012921 60 360 0.0 0.0 0.00 0.01 0.01 67 1007.3
20260509012422 60 360 0.0 0.0 0.00 0.01 0.01 66 1007.2
20260509011923 60 360 0.0 0.0 0.00 0.01 0.01 66 1007.2
20260509011423 60 360 0.0 0.0 0.00 0.01 0.01 64 1007.1
20260509010923 61 360 0.0 0.0 0.00 0.01 0.01 63 1007.1
20260509010442 61 360 0.0 0.0 0.00 0.06 0.01 64 1007.1
20260509005922 61 360 0.0 0.0 0.00 0.06 0.01 63 1007.1
20260509005424 61 360 0.0 0.0 0.00 0.06 0.01 62 1007.0
20260509004924 62 360 0.0 0.0 0.00 0.06 0.01 60 1006.9
20260509004424 62 360 0.0 0.0 0.00 0.06 0.01 59 1007.0
20260509003924 62 360 0.0 0.0 0.00 0.06 0.01 58 1007.1
20260509003425 62 360 0.0 0.0 0.00 0.06 0.01 56 1006.9
20260509002927 62 238 0.0 0.0 0.00 0.06 0.01 55 1006.9
20260509002425 63 238 0.0 0.0 0.00 0.06 0.01 54 1006.8
20260509001927 63 201 0.0 0.0 0.00 0.06 0.01 53 1006.8
20260509001427 63 201 0.0 0.0 0.00 0.06 0.01 52 1006.8
20260509000927 63 201 0.0 0.0 0.00 0.06 0.01 52 1006.7
20260509000448 63 143 0.0 3.0 0.00 0.06 0.01 51 1006.7
20260508235929 63 219 1.0 3.0 0.00 0.06 0.01 53 1006.8
20260508235430 63 176 0.0 2.0 0.00 0.06 0.01 53 1006.7
20260508234949 64 176 0.0 2.0 0.00 0.06 0.01 52 1006.7
20260508234430 64 161 0.0 2.0 0.00 0.06 0.01 52 1006.8
20260508233931 64 139 0.0 4.0 0.00 0.06 0.01 52 1006.8
20260508233432 64 209 2.0 4.0 0.00 0.06 0.01 51 1006.9
20260508232913 64 205 1.0 2.0 0.00 0.06 0.01 51 1006.9
20260508232432 65 261 0.0 4.0 0.00 0.06 0.01 51 1006.9
20260508231913 65 255 1.0 4.0 0.00 0.06 0.01 51 1006.9
20260508231433 65 216 2.0 5.0 0.00 0.06 0.01 50 1007.0
20260508230933 65 186 2.0 4.0 0.00 0.06 0.01 51 1006.9
20260508230415 65 175 1.0 3.0 0.00 0.06 0.01 52 1007.0
20260508225934 65 221 1.0 6.0 0.00 0.06 0.01 50 1006.9
20260508225449 65 236 2.0 6.0 0.00 0.06 0.01 49 1007.0
20260508224913 65 248 2.0 5.0 0.00 0.06 0.01 50 1007.0
20260508224428 65 20 2.0 4.0 0.00 0.06 0.01 51 1006.9
20260508223949 65 159 0.0 5.0 0.00 0.06 0.01 52 1007.0
20260508223428 65 249 3.0 5.0 0.00 0.06 0.01 53 1007.1
20260508222930 65 176 1.0 5.0 0.00 0.06 0.01 53 1007.0
20260508222430 65 252 1.0 7.0 0.00 0.06 0.01 53 1006.9
20260508221928 65 219 2.0 4.0 0.00 0.06 0.01 52 1007.0
20260508221428 65 26 1.0 3.0 0.00 0.06 0.01 51 1007.0
20260508220928 65 205 1.0 4.0 0.00 0.06 0.01 53 1007.1
20260508220428 65 253 2.0 5.0 0.00 0.06 0.01 53 1007.1
20260508215929 65 235 2.0 6.0 0.00 0.06 0.01 55 1007.1
20260508215428 65 211 0.0 4.0 0.00 0.06 0.01 55 1007.0
20260508214930 65 175 0.0 3.0 0.00 0.06 0.01 54 1007.0
20260508214430 65 260 1.0 5.0 0.00 0.06 0.01 54 1007.0
20260508213951 64 238 2.0 5.0 0.00 0.06 0.01 54 1007.0
20260508213428 64 208 2.0 5.0 0.00 0.06 0.01 52 1007.1
20260508212949 64 265 0.0 5.0 0.00 0.06 0.01 52 1007.1
20260508212429 64 181 2.0 5.0 0.00 0.06 0.01 51 1007.1
20260508211929 64 175 2.0 4.0 0.00 0.06 0.01 55 1007.3
20260508211430 64 188 2.0 4.0 0.00 0.06 0.01 53 1007.2
20260508210929 64 253 2.0 4.0 0.00 0.06 0.01 54 1007.2
20260508210430 64 219 2.0 7.0 0.00 0.06 0.01 53 1007.3
20260508205931 64 259 2.0 7.0 0.00 0.06 0.01 54 1007.4
20260508205413 65 192 4.0 6.0 0.00 0.06 0.01 53 1007.4
20260508204933 65 210 3.0 6.0 0.00 0.06 0.01 56 1007.5
20260508204453 65 277 2.0 6.0 0.00 0.06 0.01 56 1007.5
20260508203914 64 194 2.0 6.0 0.00 0.06 0.01 55 1007.5
20260508203436 65 181 4.0 7.0 0.00 0.06 0.01 56 1007.6
20260508202936 64 180 3.0 7.0 0.00 0.06 0.01 55 1007.6
20260508202435 64 221 3.0 8.0 0.00 0.06 0.01 58 1007.7
20260508201955 64 192 3.0 7.0 0.00 0.06 0.01 57 1007.7
20260508201453 64 207 2.0 7.0 0.00 0.06 0.01 57 1007.8